TimeCST,TemperatureF,Dew PointF,Humidity,Sea Level PressureIn,VisibilityMPH,Wind Direction,Wind SpeedMPH,Gust SpeedMPH,PrecipitationIn,Events,Conditions,WindDirDegrees,DateUTC
12:15 AM,37.4,26.6,65,29.94,10.0,ESE,6.9,-,N/A,,Clear,110,2011-11-24 06:15:00
12:35 AM,35.6,24.8,65,29.94,10.0,East,6.9,-,N/A,,Clear,90,2011-11-24 06:35:00
12:55 AM,37.4,26.6,65,29.93,10.0,ESE,5.8,-,N/A,,Clear,120,2011-11-24 06:55:00
1:15 AM,37.4,26.6,65,29.93,10.0,East,8.1,-,N/A,,Clear,100,2011-11-24 07:15:00
1:35 AM,39.2,26.6,61,29.92,10.0,SSE,8.1,-,N/A,,Clear,150,2011-11-24 07:35:00
1:55 AM,41.0,26.6,57,29.92,10.0,SSE,5.8,-,N/A,,Clear,150,2011-11-24 07:55:00
2:15 AM,39.2,26.6,61,29.91,10.0,SE,5.8,-,N/A,,Clear,130,2011-11-24 08:15:00
2:35 AM,39.2,26.6,61,29.90,10.0,South,6.9,-,N/A,,Clear,170,2011-11-24 08:35:00
2:55 AM,39.2,26.6,61,29.90,10.0,South,9.2,-,N/A,,Clear,190,2011-11-24 08:55:00
3:15 AM,44.6,28.4,53,29.89,10.0,SSW,8.1,-,N/A,,Clear,200,2011-11-24 09:15:00
3:35 AM,46.4,26.6,46,29.89,10.0,SSW,8.1,-,N/A,,Clear,200,2011-11-24 09:35:00
3:55 AM,46.4,26.6,46,29.87,10.0,SSW,11.5,-,N/A,,Clear,200,2011-11-24 09:55:00
4:15 AM,46.4,26.6,46,29.87,10.0,South,10.4,-,N/A,,Clear,190,2011-11-24 10:15:00
4:35 AM,46.4,28.4,50,29.86,10.0,SSW,13.8,-,N/A,,Clear,200,2011-11-24 10:35:00
4:55 AM,46.4,28.4,50,29.86,10.0,SSW,13.8,18.4,N/A,,Clear,200,2011-11-24 10:55:00
5:15 AM,46.4,28.4,50,29.85,10.0,SSW,10.4,-,N/A,,Clear,210,2011-11-24 11:15:00
5:35 AM,46.4,28.4,50,29.85,10.0,SSW,11.5,-,N/A,,Clear,200,2011-11-24 11:35:00
5:55 AM,46.4,28.4,50,29.85,10.0,SSW,16.1,-,N/A,,Clear,200,2011-11-24 11:55:00
6:15 AM,46.4,28.4,50,29.85,10.0,SSW,16.1,-,N/A,,Clear,200,2011-11-24 12:15:00
6:35 AM,46.4,28.4,50,29.85,10.0,SW,15.0,-,N/A,,Clear,220,2011-11-24 12:35:00
6:55 AM,46.4,28.4,50,29.86,10.0,SSW,11.5,-,N/A,,Clear,210,2011-11-24 12:55:00
7:35 AM,44.6,28.4,53,29.86,10.0,SSW,11.5,-,N/A,,Clear,200,2011-11-24 13:35:00
7:55 AM,44.6,28.4,53,29.85,10.0,SSW,6.9,-,N/A,,Clear,200,2011-11-24 13:55:00
8:15 AM,44.6,28.4,53,29.85,10.0,South,9.2,-,N/A,,Clear,190,2011-11-24 14:15:00
8:35 AM,44.6,28.4,53,29.85,10.0,SSW,13.8,-,N/A,,Partly Cloudy,200,2011-11-24 14:35:00
8:55 AM,44.6,28.4,53,29.85,10.0,South,6.9,-,N/A,,Clear,170,2011-11-24 14:55:00
9:15 AM,46.4,28.4,50,29.84,10.0,SSE,6.9,-,N/A,,Clear,150,2011-11-24 15:15:00
9:35 AM,46.4,30.2,53,29.83,10.0,South,6.9,-,N/A,,Clear,170,2011-11-24 15:35:00
9:55 AM,48.2,30.2,50,29.83,10.0,South,10.4,17.3,N/A,,Clear,170,2011-11-24 15:55:00
10:15 AM,50.0,30.2,47,29.83,10.0,SSE,9.2,-,N/A,,Clear,160,2011-11-24 16:15:00
10:35 AM,53.6,32.0,44,29.82,10.0,SSW,15.0,-,N/A,,Clear,200,2011-11-24 16:35:00
10:55 AM,53.6,32.0,44,29.82,10.0,SSW,11.5,-,N/A,,Clear,200,2011-11-24 16:55:00
11:15 AM,55.4,32.0,41,29.80,10.0,South,8.1,-,N/A,,Clear,180,2011-11-24 17:15:00
11:35 AM,55.4,33.8,44,29.79,10.0,South,10.4,-,N/A,,Clear,180,2011-11-24 17:35:00
11:55 AM,59.0,33.8,39,29.77,10.0,South,13.8,-,N/A,,Clear,170,2011-11-24 17:55:00
12:15 PM,60.8,35.6,39,29.76,10.0,South,12.7,-,N/A,,Clear,180,2011-11-24 18:15:00
12:35 PM,62.6,35.6,37,29.76,10.0,South,16.1,-,N/A,,Clear,190,2011-11-24 18:35:00
1:15 PM,62.6,35.6,37,29.74,10.0,South,19.6,-,N/A,,Clear,190,2011-11-24 19:15:00
2:15 PM,62.6,33.8,34,29.73,10.0,SSW,13.8,19.6,N/A,,Clear,200,2011-11-24 20:15:00
2:35 PM,62.6,33.8,34,29.72,10.0,SSW,16.1,-,N/A,,Clear,200,2011-11-24 20:35:00
2:55 PM,62.6,33.8,34,29.72,10.0,South,16.1,23.0,N/A,,Clear,190,2011-11-24 20:55:00
3:15 PM,64.4,33.8,32,29.72,10.0,South,16.1,20.7,N/A,,Clear,190,2011-11-24 21:15:00
3:35 PM,64.4,33.8,32,29.71,10.0,South,19.6,25.3,N/A,,Clear,180,2011-11-24 21:35:00
3:55 PM,62.6,35.6,37,29.71,10.0,South,13.8,20.7,N/A,,Clear,180,2011-11-24 21:55:00
4:15 PM,62.6,35.6,37,29.71,10.0,South,15.0,19.6,N/A,,Clear,180,2011-11-24 22:15:00
4:55 PM,60.8,33.8,36,29.72,10.0,SSW,11.5,-,N/A,,Clear,200,2011-11-24 22:55:00
5:15 PM,57.2,33.8,41,29.72,10.0,SSW,10.4,16.1,N/A,,Clear,200,2011-11-24 23:15:00
5:35 PM,55.4,33.8,44,29.72,10.0,SSW,13.8,18.4,N/A,,Clear,210,2011-11-24 23:35:00
5:55 PM,55.4,33.8,44,29.73,10.0,SSW,10.4,-,N/A,,Clear,210,2011-11-24 23:55:00
6:15 PM,55.4,33.8,44,29.73,10.0,SSW,13.8,-,N/A,,Clear,200,2011-11-25 00:15:00
6:55 PM,55.4,32.0,41,29.72,10.0,SSW,15.0,-,N/A,,Clear,210,2011-11-25 00:55:00
7:35 PM,55.4,30.2,38,29.72,10.0,SW,12.7,-,N/A,,Clear,230,2011-11-25 01:35:00
7:55 PM,55.4,30.2,38,29.72,10.0,SW,16.1,-,N/A,,Clear,220,2011-11-25 01:55:00
8:15 PM,53.6,30.2,41,29.71,10.0,SW,12.7,-,N/A,,Clear,220,2011-11-25 02:15:00
8:35 PM,51.8,30.2,44,29.71,10.0,SW,13.8,-,N/A,,Clear,220,2011-11-25 02:35:00
8:55 PM,53.6,30.2,41,29.71,10.0,SW,15.0,-,N/A,,Clear,220,2011-11-25 02:55:00
9:15 PM,51.8,30.2,44,29.71,10.0,SSW,11.5,-,N/A,,Clear,210,2011-11-25 03:15:00
9:35 PM,51.8,30.2,44,29.70,10.0,SSW,11.5,-,N/A,,Clear,210,2011-11-25 03:35:00
9:55 PM,50.0,30.2,47,29.70,10.0,SSW,10.4,-,N/A,,Clear,210,2011-11-25 03:55:00
10:35 PM,51.8,30.2,44,29.71,10.0,SW,10.4,-,N/A,,Clear,220,2011-11-25 04:35:00
11:15 PM,50.0,30.2,47,29.68,10.0,SSW,8.1,-,N/A,,Clear,210,2011-11-25 05:15:00
11:35 PM,50.0,28.4,43,29.68,10.0,South,8.1,-,N/A,,Clear,190,2011-11-25 05:35:00
11:55 PM,48.2,28.4,46,29.69,10.0,SSW,3.5,-,N/A,,Clear,200,2011-11-25 05:55:00